Location: *
(40.4270°N, 9.4940°E)
Time: 13:26:38
(UTC+02:00)

Okean 2 - Visible Passes

Search period start: 25 May 2015 00:00
Search period end: 04 June 2015 00:00
Orbit: 565 x 583 km, 82.5° (Epoch: 25 May)

Date Brightness Start Highest point End Pass type
(mag) Time Alt. Az. Time Alt. Az. Time Alt. Az.
25 May 6.1 22:04:20 10° WSW 22:07:31 21° WNW 22:10:36 10° NNW visible
26 May 6.3 22:08:11 10° WSW 22:10:49 16° WNW 22:13:19 10° NNW visible
27 May 6.6 22:12:23 10° W 22:14:09 12° WNW 22:15:44 10° NW visible
